Weather History for Birmingham, United Kingdom

Change the Weather History Date:

Friday, October 12, 2012

  Actual Average Record
Temperature  
Mean Temperature 47 °F -  
Max Temperature 55 °F 54 °F 68 °F (2001)
Min Temperature 39 °F 41 °F 35 °F (1999)
Degree Days  
Heating Degree Days 18    
Moisture  
Dew Point 43 °F    
Average Humidity 80    
Maximum Humidity 100    
Minimum Humidity 58    
Precipitation  
Precipitation 0.00 in 0.07 in - ()
Sea Level Pressure  
Sea Level Pressure 29.63 in    
Wind  
Wind Speed 11 mph ()    
Max Wind Speed 18 mph    
Max Gust Speed 29 mph    
Visibility 6.1 miles    
Events Rain    
Averages and records for this station are not official NWS values.
T = Trace of Precipitation, MM = Missing Value Source: Averaged Metar Reports

Daily Weather History Graph

Daily Weather History Graph

Search for Another Location

Airport:

Trip Planner

Search our weather history database for the weather conditions in past years. The results will help you decide how hot, cold, wet, or windy it might be!

Date:

Astronomy

Oct. 12, 2012 Rise Set
Actual Time 7:27 AM BST 6:18 PM BST
Civil Twilight 6:53 AM BST 6:52 PM BST
Nautical Twilight 6:13 AM BST 7:31 PM BST
Astronomical Twilight 5:34 AM BST 8:11 PM BST
Moon 3:31 AM BST (10/12) 4:38 PM BST (10/12)
Length of Visible Light 11h 59m
Length of Day
10h 50m
Waning Crescent, 12% of the Moon is Illuminated
Oct 12
Waning Crescent
Oct 15
New
Oct 22
First Quarter
Oct 29
Full
Nov 7
Last Quarter

Hourly Weather History & Observations

Time (BST) Temp. Windchill Dew Point Humidity Pressure Visibility Wind Dir Wind Speed Gust Speed Precip Events Conditions
12:20 AM 55.4 °F - 55.4 °F 100% 29.44 in 5.0 mi West 6.9 mph - N/A Rain Light Rain
12:50 AM 55.4 °F - 55.4 °F 100% 29.44 in 5.6 mi West 9.2 mph - N/A Rain Light Rain
1:20 AM 53.6 °F - 51.8 °F 94% 29.47 in 5.6 mi WNW 16.1 mph - N/A   Mostly Cloudy
1:50 AM 53.6 °F - 51.8 °F 94% 29.47 in 6.2 mi West 13.8 mph - N/A   Scattered Clouds
2:20 AM 51.8 °F - 50.0 °F 94% 29.47 in 6.2 mi West 12.7 mph - N/A   Light Drizzle
2:50 AM 51.8 °F - 50.0 °F 94% 29.47 in 6.2 mi West 11.5 mph - N/A   Mostly Cloudy
3:20 AM 51.8 °F - 50.0 °F 94% 29.50 in 5.6 mi WNW 13.8 mph - N/A   Mostly Cloudy
3:50 AM 51.8 °F - 50.0 °F 94% 29.50 in 6.2 mi West 13.8 mph - N/A   Mostly Cloudy
4:20 AM 51.8 °F - 48.2 °F 88% 29.50 in 6.2 mi WNW 17.3 mph 28.8 mph N/A   Mostly Cloudy
4:50 AM 50.0 °F - 46.4 °F 87% 29.53 in 6.2 mi WNW 15.0 mph - N/A   Mostly Cloudy
5:20 AM 50.0 °F - 46.4 °F 87% 29.53 in 6.2 mi West 13.8 mph - N/A   Mostly Cloudy
5:50 AM 50.0 °F - 46.4 °F 87% 29.56 in 6.2 mi West 16.1 mph - N/A   Mostly Cloudy
6:20 AM 50.0 °F - 46.4 °F 87% 29.56 in 6.2 mi West 13.8 mph - N/A   Scattered Clouds
6:50 AM 50.0 °F - 44.6 °F 82% 29.56 in 6.2 mi West 16.1 mph - N/A   Scattered Clouds
7:20 AM 48.2 °F - 44.6 °F 87% 29.59 in 6.2 mi West 13.8 mph - N/A   Partly Cloudy
7:50 AM 48.2 °F - 44.6 °F 87% 29.59 in 6.2 mi West 12.7 mph - N/A   Partly Cloudy
8:20 AM 48.2 °F - 42.8 °F 82% 29.62 in 6.2 mi West 15.0 mph - N/A   Partly Cloudy
8:50 AM 48.2 °F - 42.8 °F 82% 29.65 in - West 11.5 mph - N/A   Clear
9:20 AM 48.2 °F - 41.0 °F 76% 29.65 in - West 13.8 mph - N/A   Clear
9:50 AM 48.2 °F - 41.0 °F 76% 29.68 in - West 13.8 mph - N/A   Clear
10:20 AM 50.0 °F - 41.0 °F 71% 29.68 in - West 15.0 mph - N/A   Clear
10:50 AM 51.8 °F - 41.0 °F 67% 29.68 in 6.2 mi West 15.0 mph - N/A   Partly Cloudy
11:20 AM 51.8 °F - 41.0 °F 67% 29.68 in 6.2 mi WSW 18.4 mph - N/A   Partly Cloudy
11:50 AM 53.6 °F - 41.0 °F 62% 29.68 in 6.2 mi West 18.4 mph - N/A   Scattered Clouds
12:20 PM 53.6 °F - 41.0 °F 62% 29.68 in 6.2 mi West 18.4 mph - N/A   Scattered Clouds
12:50 PM 53.6 °F - 41.0 °F 62% 29.68 in 6.2 mi WSW 17.3 mph - N/A   Scattered Clouds
1:20 PM 53.6 °F - 41.0 °F 62% 29.68 in 6.2 mi West 13.8 mph - N/A   Scattered Clouds
1:50 PM 50.0 °F - 42.8 °F 76% 29.71 in 6.2 mi West 18.4 mph - N/A Rain Light Rain Showers
2:20 PM 50.0 °F - 42.8 °F 76% 29.71 in 6.2 mi WSW 9.2 mph - N/A   Scattered Clouds
2:50 PM 51.8 °F - 42.8 °F 71% 29.68 in 6.2 mi West 12.7 mph - N/A   Partly Cloudy
3:50 PM 51.8 °F - 39.2 °F 62% 29.71 in 6.2 mi WSW 12.7 mph - N/A   Scattered Clouds
4:20 PM 51.8 °F - 39.2 °F 62% 29.71 in 6.2 mi WSW 12.7 mph - N/A   Partly Cloudy
4:50 PM 51.8 °F - 37.4 °F 58% 29.71 in 6.2 mi West 13.8 mph - N/A   Partly Cloudy
5:20 PM 51.8 °F - 37.4 °F 58% 29.71 in 6.2 mi WSW 12.7 mph - N/A   Partly Cloudy
5:50 PM 50.0 °F - 37.4 °F 62% 29.74 in 6.2 mi WSW 9.2 mph - N/A   Partly Cloudy
6:20 PM 48.2 °F - 37.4 °F 66% 29.74 in 6.2 mi SW 5.8 mph - N/A   Partly Cloudy
6:50 PM 48.2 °F - 39.2 °F 71% 29.74 in 6.2 mi SW 6.9 mph - N/A   Partly Cloudy
7:50 PM 44.6 °F 41.4 °F 39.2 °F 81% 29.74 in - South 5.8 mph - N/A   Clear
8:20 PM 42.8 °F 40.1 °F 37.4 °F 81% 29.71 in - South 4.6 mph - N/A   Clear
8:50 PM 42.8 °F 38.0 °F 39.2 °F 87% 29.71 in - South 8.1 mph - N/A   Clear
9:20 PM 42.8 °F 38.6 °F 39.2 °F 87% 29.71 in - South 6.9 mph - N/A   Clear
9:50 PM 39.2 °F 34.2 °F 37.4 °F 93% 29.71 in - SSE 6.9 mph - N/A   Clear
10:20 PM 39.2 °F 34.2 °F 39.2 °F 100% 29.71 in - SSE 6.9 mph - N/A   Clear
10:50 PM 41.0 °F 36.4 °F 39.2 °F 93% 29.71 in - South 6.9 mph - N/A   Clear
11:20 PM 42.8 °F 38.6 °F 41.0 °F 93% 29.71 in 6.2 mi South 6.9 mph - N/A   Partly Cloudy
11:50 PM 42.8 °F 38.6 °F 39.2 °F 87% 29.71 in 6.2 mi South 6.9 mph - N/A   Partly Cloudy